RH
14 15 27 28 17 11 8 7 7 13 14 16 18 12 13 15 18 18 39 37 30 26 16 16 17 18 22 36 49 54 61 68 67 66 72 70 68 66 64 60 58 58 57 52 54 63 65 64 66
28 23 23 19 12 9 7 7 8 8 12 15 16 18 18 15 22 32 49 37 27 15 18 19 18 23 28 41 49 56 59 59 60 65 74 76 72 70 67 59 55 59 56 66 61 75 76 60 64
26 26 16 12 12 9 7 6 7 12 13 14 16 22 18 18 35 33 43 17 16 18 19 19 19 24 30 42 52 51 51 54 66 70 79 81 78 72 68 61 60 67 71 72 70 75 64 63 66
29 22 18 14 10 10 7 5 11 13 11 13 14 14 17 28 35 39 32 17 21 20 20 20 20 22 31 41 52 53 51 53 64 70 75 81 81 80 68 64 64 78 72 74 71 75 68 65 72
27 16 12 13 9 7 9 9 10 13 14 12 9 11 15 25 30 28 27 23 23 22 22 23 21 21 31 43 55 56 54 55 62 66 74 79 83 81 72 69 72 64 73 70 73 72 75 72 75
19 16 13 11 9 10 10 7 11 10 9 10 10 12 14 24 38 33 27 28 25 22 24 25 22 23 25 45 55 60 58 60 60 61 70 72 72 82 82 80 80 76 73 77 78 69 73 82 78
18 15 14 11 9 10 11 8 11 8 7 7 11 13 14 24 44 61 48 39 24 24 27 27 25 25 28 39 57 63 62 62 64 60 66 77 79 86 89 91 88 81 86 82 73 72 73 83 79
20 15 16 13 14 13 10 11 10 10 8 14 16 16 17 28 40 43 77 46 26 25 28 31 29 29 35 40 57 68 70 70 70 70 69 82 78 76 87 79 83 76 81 79 69 69 80 80 84
22 19 18 15 16 14 12 12 12 12 12 11 13 15 20 33 24 70 78 81 50 27 31 34 33 31 39 47 51 70 78 80 80 78 75 84 81 84 79 69 78 76 64 60 70 74 80 80 85
21 20 17 13 15 15 13 12 12 12 12 14 13 13 17 31 38 52 66 66 75 54 42 46 37 34 40 53 55 78 82 85 88 87 83 82 80 77 83 84 75 65 65 59 57 77 72 80 90
22 22 16 17 18 16 14 13 14 13 15 12 13 11 14 20 21 41 49 56 58 72 42 44 41 41 44 42 51 84 95 93 90 90 91 87 81 83 82 79 70 64 70 74 87 86 81 91 97
26 22 20 17 18 18 16 16 15 15 16 16 14 13 15 17 19 21 33 43 54 65 43 38 43 47 48 46 51 61 92 99 99 95 93 94 89 96 98 73 74 73 81 86 84 87 85 99 97
20 15 15 18 18 18 17 16 16 16 17 18 17 18 19 19 16 17 21 28 41 65 80 37 44 48 50 56 53 64 80 87 86 94 88 89 93 96 95 94 95 78 80 83 92 88 90 99 99
18 22 20 20 21 21 21 19 18 18 18 18 19 18 18 18 14 16 18 23 31 52 75 42 41 50 57 64 56 65 79 88 88 94 89 85 90 97 97 92 89 79 86 97 96 87 96 98 98
23 22 17 16 17 20 22 24 22 18 16 18 19 19 18 18 15 17 18 22 32 49 71 63 41 49 58 82 75 67 76 93 89 92 92 91 96 91 91 88 92 86 90 95 99 89 93 93 91
24 20 23 13 21 23 26 24 15 17 18 17 17 18 17 16 14 15 17 24 34 51 70 72 45 50 56 84 67 57 61 90 89 88 91 89 98 96 79 92 99 90 95 91 92 97 97 91 90
23 22 18 21 20 20 22 23 18 19 21 19 18 17 17 16 14 15 18 25 38 54 69 67 46 51 55 72 56 62 58 98 92 89 92 94 99 98 99 99 100 94 94 96 81 92 92 89 89
21 26 22 25 19 21 22 22 18 18 21 22 22 19 18 19 16 15 17 28 43 57 74 84 50 54 57 69 53 70 69 98 97 92 88 92 96 98 98 99 100 96 90 94 89 92 92 88 87
20 21 22 20 18 24 26 22 19 17 17 18 22 21 19 19 18 15 18 29 49 61 78 79 52 56 59 69 53 64 86 99 98 99 99 100 100 99 99 100 100 99 96 93 89 80 95 96 92
24 25 25 22 23 30 29 28 23 20 19 20 20 22 21 20 18 16 17 30 46 60 71 61 50 50 62 65 52 57 79 99 99 98 96 96 97 94 98 99 100 98 97 98 91 71 97 92 94
30 31 28 32 33 33 34 30 22 20 19 19 19 20 20 21 19 17 16 24 50 59 63 44 49 57 62 67 52 90 88 92 97 94 93 92 94 96 99 100 100 99 96 96 97 96 96 93 92
33 30 40 42 45 41 33 40 23 23 22 21 21 21 19 20 19 18 16 18 45 57 78 54 57 84 65 61 60 96 94 98 99 94 90 98 95 96 99 100 98 100 97 100 99 100 98 90 94
38 40 43 45 47 46 40 45 22 24 27 26 21 22 21 20 19 18 18 17 39 61 82 84 80 93 65 58 93 96 97 98 100 86 96 99 88 98 98 100 100 99 100 99 100 100 99 96 92
38 46 44 44 47 67 38 38 26 30 44 41 38 37 35 35 38 33 26 24 40 64 89 91 84 82 64 60 96 96 99 98 96 92 99 99 98 95 93 100 100 100 100 100 100 99 100 96 95
45 46 42 58 74 43 35 42 31 43 47 49 50 51 52 53 51 50 40 45 54 73 97 89 89 76 64 81 97 92 99 98 93 94 99 98 95 92 99 100 100 100 100 100 100 97 87 95 91
43 37 42 50 44 38 38 45 39 44 44 48 51 56 60 66 66 54 46 59 66 81 100 100 96 75 66 97 94 66 100 97 94 97 98 96 100 100 96 95 100 100 100 100 100 84 77 93 93
52 63 44 64 52 59 33 31 44 41 46 50 54 62 69 81 84 73 51 69 78 88 99 99 99 82 69 85 60 70 100 98 95 93 96 97 97 97 100 98 97 91 99 89 81 72 59 60 75
52 44 80 68 72 57 32 36 45 58 65 60 56 61 75 89 98 96 68 77 80 94 99 98 100 91 70 69 59 70 93 100 97 98 98 98 94 91 94 99 100 100 90 89 88 72 68 67 64
69 76 76 78 79 63 46 41 56 70 71 60 54 72 85 95 100 99 87 84 93 99 100 100 100 98 78 69 65 70 80 95 99 100 100 99 96 93 95 94 99 100 100 88 87 70 74 74 64
44 54 58 67 76 74 82 50 53 61 58 54 75 76 89 97 99 100 100 100 100 99 99 99 100 100 85 74 77 77 81 85 98 99 98 99 98 97 94 92 99 98 99 100 97 91 77 76 62
Wind_Speed
13 11 7 4 7 6 13 6 6 5 4 3 1 9 7 7 6 2 2 11 11 14 12 10 8 9 11 13 15 17 19 20 21 23 25 25 25 23 23 22 22 22 20 19 19 20 20 18 17
14 13 7 5 8 13 11 6 10 6 2 5 8 11 9 11 6 1 9 14 17 17 13 9 9 12 13 15 15 16 17 18 19 23 25 26 26 25 24 23 23 23 21 20 21 20 19 17 18
16 13 9 5 12 16 13 6 8 5 3 3 4 5 4 2 4 5 7 19 20 17 12 10 9 11 14 15 16 16 17 17 20 24 26 27 28 26 23 24 25 23 23 22 19 20 18 18 18
12 9 7 11 18 9 15 6 5 5 3 2 3 6 5 5 1 8 15 22 20 17 13 10 9 10 12 14 17 18 18 18 21 24 26 26 25 24 26 27 25 23 21 21 19 17 18 19 22
12 9 12 16 21 18 11 10 8 10 5 5 9 10 8 7 7 9 19 22 19 16 14 12 8 8 12 15 17 18 19 19 21 23 22 22 23 27 26 25 22 21 21 20 19 18 18 22 23
12 10 12 17 20 14 17 20 15 15 16 14 12 9 11 6 8 10 19 23 20 16 14 12 10 10 11 15 17 19 20 21 21 21 21 22 23 22 22 22 20 19 18 18 19 18 19 23 22
17 11 19 21 19 10 16 14 14 16 16 17 6 8 8 6 6 10 19 22 21 19 16 14 12 11 12 14 18 19 21 21 21 22 22 22 22 24 27 22 23 21 15 17 18 19 20 24 22
17 9 21 17 15 19 18 11 13 13 16 4 7 5 5 8 10 13 14 21 23 21 19 17 14 13 14 15 18 20 21 21 21 23 22 24 27 27 28 27 23 23 19 15 17 20 22 24 23
14 10 16 20 14 13 13 10 7 9 13 15 11 8 6 9 13 8 15 18 22 24 23 21 17 15 16 16 17 20 22 23 22 22 24 25 26 30 28 30 33 25 24 22 21 23 23 25 23
15 15 21 17 12 14 14 14 15 13 15 15 16 17 9 11 9 7 18 21 21 22 23 22 20 18 18 18 19 19 20 23 25 26 24 25 27 28 29 32 30 24 23 27 24 27 23 25 24
14 21 16 12 15 18 18 19 19 17 18 20 21 21 15 14 15 12 15 23 22 19 25 24 22 19 19 18 20 21 24 23 25 26 26 26 25 28 28 28 27 25 25 28 28 27 25 27 23
14 16 20 19 18 21 19 24 24 26 24 23 26 23 21 21 20 20 18 20 24 23 26 25 23 21 20 18 19 21 24 25 26 25 26 27 28 26 25 30 29 25 28 32 32 30 30 25 24
17 18 19 20 23 25 26 26 28 29 22 27 26 24 22 23 22 21 20 18 22 26 23 28 26 23 21 20 19 22 23 24 22 22 25 25 28 27 27 26 22 29 30 32 35 33 31 26 21
10 9 15 15 19 22 22 24 24 24 23 28 32 29 26 25 24 22 20 22 23 27 25 29 29 25 22 20 20 22 22 21 22 21 23 23 26 29 28 24 24 30 33 41 35 33 30 23 19
13 16 17 19 20 17 20 19 24 30 27 27 28 28 26 26 25 23 22 21 22 27 26 31 31 27 23 19 18 22 22 22 22 21 22 25 30 37 29 25 23 28 25 31 33 30 25 21 20
7 11 14 6 7 8 8 16 5 7 13 17 20 22 21 24 24 22 21 21 20 24 28 30 31 28 24 20 19 19 22 23 22 22 22 23 30 37 35 29 27 32 33 32 30 27 23 23 21
10 11 12 13 12 13 13 14 6 9 16 21 19 18 20 20 22 21 19 18 19 24 27 30 31 28 25 24 19 19 19 24 23 24 24 24 28 31 34 35 30 32 36 36 33 28 24 23 22
8 12 10 12 5 14 21 23 21 26 21 21 20 22 20 18 20 21 16 15 18 22 25 27 29 28 27 24 19 20 19 24 24 25 25 25 27 26 27 31 33 35 38 36 33 32 25 24 23
13 15 17 17 17 20 22 22 19 20 25 23 23 24 23 22 20 21 17 13 18 21 24 27 30 29 29 26 23 23 21 23 25 27 28 27 28 30 28 35 36 36 41 38 38 36 28 27 25
18 17 18 16 13 12 18 24 23 24 22 26 26 26 24 21 24 23 21 16 18 21 24 29 32 31 31 26 23 24 23 20 19 19 22 26 28 30 33 32 40 41 41 42 41 41 33 29 28
16 15 14 15 15 18 19 23 10 5 15 22 27 31 28 24 24 24 25 22 19 23 26 30 33 33 31 25 23 18 18 18 19 19 20 21 23 27 32 36 36 50 43 45 46 46 39 34 30
12 9 11 11 9 7 4 8 11 10 8 10 16 20 25 27 25 25 25 26 24 24 25 29 32 31 30 26 23 18 17 19 15 19 17 14 17 20 24 37 37 37 45 44 39 47 43 31 33
8 4 7 9 11 12 15 8 5 6 4 9 6 12 19 24 25 23 22 27 24 23 26 26 32 31 30 25 19 17 16 15 12 14 15 12 10 8 8 26 31 35 48 44 38 43 42 35 33
3 5 9 10 8 8 15 10 3 5 11 11 12 14 10 8 13 16 19 21 23 23 26 30 36 35 29 25 20 18 17 15 15 16 16 12 8 7 8 18 33 30 41 40 43 42 42 37 32
9 5 3 6 5 7 4 7 10 9 9 10 12 15 15 15 13 12 10 17 22 27 30 34 37 35 30 24 20 19 15 14 18 18 17 18 13 13 10 15 31 33 28 26 32 35 35 43 39
12 11 5 6 5 2 4 7 5 4 7 13 14 17 20 21 19 13 8 14 19 25 28 33 36 35 31 24 21 19 16 15 19 20 20 17 14 16 17 15 18 21 26 24 27 24 26 37 38
7 8 4 5 11 7 9 6 7 6 11 14 19 23 23 25 24 19 5 13 17 22 26 32 34 33 31 25 21 21 18 14 19 20 18 17 15 15 15 16 17 23 26 30 29 32 30 30 37
7 5 4 5 4 5 5 8 3 6 11 14 17 21 23 23 24 19 6 8 13 17 23 27 25 30 31 25 22 20 20 16 16 16 16 17 16 17 18 16 20 22 30 32 36 38 38 39 36
6 4 5 1 4 4 3 1 5 6 8 12 13 15 17 20 23 20 7 4 11 15 21 29 26 27 29 25 22 20 20 21 19 16 13 12 13 13 14 16 13 18 28 33 34 39 41 39 39
6 6 10 4 5 2 5 3 7 4 4 7 5 11 13 14 18 18 8 6 12 16 20 27 22 24 25 23 22 19 19 20 20 17 13 13 10 13 15 15 13 12 13 25 40 39 39 40 43
Wind_Direction
212 217 192 203 242 234 254 244 287 206 214 197 245 223 222 319 197 354 148 172 171 169 164 160 173 201 217 212 202 204 208 215 219 219 209 206 201 198 195 187 184 183 183 179 174 172 173 170 165
194 183 183 237 248 238 240 219 241 233 291 274 254 242 245 237 238 284 144 163 160 165 167 171 181 206 219 220 210 206 204 210 215 214 211 206 203 202 195 190 190 184 180 176 175 176 179 175 169
181 178 216 228 240 244 252 185 264 156 304 240 232 240 235 230 209 190 166 163 169 173 178 186 189 211 222 221 214 211 212 207 209 215 211 207 207 204 199 195 192 184 178 177 179 184 181 179 178
172 183 231 237 241 239 260 250 241 196 150 93 316 256 249 239 198 179 180 176 178 181 183 190 198 218 225 225 217 212 212 209 210 211 213 213 208 204 203 199 192 186 188 184 187 189 186 182 174
183 221 235 231 245 248 234 263 233 248 266 284 314 275 268 268 240 214 185 187 187 186 188 191 203 218 222 226 218 214 211 213 214 215 209 211 206 209 204 198 194 191 195 195 197 196 190 181 175
196 240 238 242 241 228 247 250 243 256 262 266 277 285 271 247 230 230 203 195 195 197 196 198 204 210 218 220 218 216 215 215 216 218 211 208 212 206 200 197 197 195 197 201 197 195 192 185 180
235 220 248 258 259 239 241 261 234 254 267 268 229 259 269 317 250 220 200 200 198 202 205 209 210 212 214 215 216 217 218 216 218 223 214 211 203 199 198 194 197 192 201 210 202 198 194 188 184
223 248 256 253 255 242 241 239 250 251 257 223 239 233 232 326 326 232 197 198 201 207 211 215 214 218 216 216 214 215 218 219 219 223 214 208 207 210 199 199 219 199 195 217 213 207 193 192 185
215 238 244 244 237 252 237 242 228 255 252 245 238 259 296 313 342 224 202 199 203 211 216 217 216 218 220 219 219 217 217 217 217 223 223 214 212 211 218 225 212 207 207 207 219 211 199 194 188
214 236 246 257 251 253 253 257 265 251 239 230 243 245 273 292 307 265 221 214 211 211 215 218 216 217 216 219 221 216 224 222 217 220 221 222 216 225 215 199 206 208 235 209 210 213 200 193 185
225 247 262 246 249 256 261 263 255 251 250 250 257 259 267 259 283 267 246 229 227 220 223 219 218 215 217 219 219 215 222 224 223 222 221 222 221 216 212 211 213 234 211 198 197 206 193 187 176
255 241 260 261 258 257 258 266 265 255 253 259 255 262 262 263 266 263 254 237 227 225 232 229 224 217 220 221 224 229 227 229 228 226 226 223 218 212 208 214 208 222 210 199 196 196 193 180 177
242 258 264 263 261 263 269 263 265 265 259 253 256 257 257 257 257 257 253 244 232 227 223 229 228 221 224 223 228 233 232 234 235 230 228 223 222 215 201 201 210 209 211 210 192 191 185 176 172
282 277 272 267 269 266 265 266 261 257 256 255 255 255 252 250 248 250 249 245 235 226 219 229 229 223 226 222 234 236 231 233 234 230 229 228 222 203 201 211 219 219 219 206 193 187 183 175 174
269 273 273 263 260 251 268 264 252 258 257 254 254 253 249 247 246 244 248 249 240 224 214 223 227 224 225 222 231 231 229 229 231 229 226 224 222 213 214 220 225 215 201 184 185 185 179 173 175
277 271 270 272 239 228 227 272 224 218 239 248 249 251 246 241 239 239 246 246 234 216 210 219 223 224 226 222 231 229 226 222 225 224 224 226 225 219 222 227 232 217 206 200 190 180 177 176 179
227 264 262 278 239 277 246 279 304 257 276 271 264 261 252 245 239 235 243 238 225 211 204 215 220 221 225 225 230 228 230 217 216 223 223 226 223 230 234 235 216 215 208 195 197 191 183 181 178
232 237 250 265 262 283 284 275 273 269 263 263 267 259 253 244 238 232 235 230 213 203 201 209 215 217 222 220 225 221 224 216 217 220 223 225 226 230 226 222 219 216 205 198 192 192 184 183 178
263 268 274 279 281 281 279 277 276 273 263 254 249 254 245 244 242 235 235 225 206 200 198 206 214 213 219 212 218 216 213 214 219 224 227 232 233 235 228 221 224 224 210 203 194 191 185 180 179
250 259 270 282 273 277 284 284 283 266 257 253 248 245 247 251 246 238 234 227 217 206 206 209 214 216 216 211 220 217 216 217 222 227 230 233 237 237 236 232 222 224 206 203 194 193 188 186 181
237 250 265 276 292 278 278 284 255 262 250 252 249 248 245 248 249 243 238 230 220 209 207 214 213 210 211 205 215 202 213 224 222 221 227 228 237 236 236 233 211 214 210 206 198 200 189 183 184
238 232 253 269 282 278 5 290 298 288 301 261 254 252 243 239 243 243 242 226 219 213 203 212 207 201 204 205 208 198 209 213 218 223 232 230 249 242 234 236 224 215 203 204 203 198 196 188 187
244 185 245 262 269 292 271 252 259 246 316 3 344 308 249 246 247 252 241 227 219 206 198 200 200 194 199 202 193 195 201 202 208 221 218 234 222 237 225 223 226 215 209 209 206 201 196 195 193
204 218 244 254 258 253 249 231 258 37 356 338 350 340 345 307 283 276 253 227 212 198 192 197 196 195 195 196 190 194 199 201 205 215 212 218 213 190 187 224 219 209 212 206 199 200 197 197 197
210 214 238 205 207 251 139 226 275 17 7 359 355 349 340 336 328 316 256 212 198 188 191 194 194 192 192 185 189 196 192 200 200 208 206 215 207 202 192 206 211 200 198 192 202 199 207 211 211
215 213 242 264 239 245 179 241 111 69 28 12 2 356 350 344 343 332 263 209 191 182 188 190 192 190 187 180 188 196 187 196 197 203 205 209 212 216 213 204 197 197 188 186 192 189 212 218 222
171 217 281 264 241 262 246 207 183 56 32 16 12 5 351 348 344 346 292 199 185 182 186 187 189 187 185 183 190 185 181 192 193 198 207 212 216 222 215 206 219 209 202 204 211 210 203 217 228
251 141 187 208 237 237 202 247 139 32 21 8 1 1 352 350 348 356 12 179 170 181 182 181 176 183 185 184 187 183 182 179 183 186 203 212 215 217 218 214 214 226 213 211 214 211 207 216 221
173 193 220 266 279 295 299 160 108 79 17 340 354 356 354 354 348 356 357 151 169 166 172 175 169 177 177 178 179 181 186 185 189 191 190 194 191 192 193 205 207 224 221 207 216 213 216 216 222
232 199 211 242 163 290 311 308 115 148 315 346 7 6 357 1 354 2 47 119 153 162 175 172 170 173 173 175 173 175 180 189 191 188 182 186 187 187 193 201 195 200 219 216 223 222 225 229 228